GEFSGL_con_prob3kmehi_174.txt.gz
EHI
26 28 29 24 16 11 8 7 6 5 4 3 3 3 3 3 3 2 1 0 0 0 0 0 0 0 0 0 0 0 0 0 0 0 0 0 0 0 0 0 0 0 0
23 25 27 24 18 13 9 6 5 4 3 3 3 3 3 3 3 3 1 0 0 0 0 0 0 0 0 0 0 0 0 0 0 0 0 0 0 0 0 0 0 0 0
20 20 21 21 20 16 10 6 4 3 3 3 3 3 3 3 3 3 2 1 0 0 0 0 0 0 0 0 0 0 0 0 0 0 0 0 0 0 0 0 0 0 0
18 16 14 16 18 16 10 6 5 4 3 3 3 3 3 3 3 3 3 2 0 0 0 0 0 0 0 0 0 0 0 0 0 0 0 0 0 0 0 0 0 0 0
14 12 10 11 12 12 8 5 4 4 3 3 3 3 3 2 2 2 2 1 0 0 0 0 0 0 0 0 0 0 0 0 0 0 0 0 0 0 0 0 0 0 0
10 9 8 8 8 7 5 3 2 3 3 3 3 2 1 1 1 0 0 0 0 0 0 0 0 0 0 0 0 0 0 0 0 0 0 0 0 0 0 0 0 0 0
5 5 6 5 5 5 3 2 1 1 1 2 1 1 0 0 0 0 0 0 0 0 0 0 0 0 0 0 0 0 0 0 0 0 0 0 0 0 0 0 0 0 0
1 2 3 4 4 3 2 2 2 1 1 1 1 0 0 0 0 0 0 0 0 0 0 0 0 0 0 0 0 0 0 0 0 0 0 0 0 0 0 0 0 0 0
0 0 1 3 3 3 2 2 3 2 1 0 0 0 0 0 0 0 0 0 0 0 0 0 0 0 0 0 0 0 0 0 0 0 0 0 0 0 0 0 0 0 0
0 1 1 3 3 3 2 2 3 2 1 0 0 0 0 0 0 0 0 0 0 0 0 0 0 0 0 0 0 0 0 0 0 0 0 0 0 0 0 0 0 0 0
1 1 2 2 2 2 2 3 3 2 0 0 0 0 0 0 0 0 0 0 0 0 0 0 0 0 0 0 0 0 0 0 0 0 0 0 0 0 0 0 0 0 0
0 1 1 1 1 1 2 3 3 2 1 1 1 0 0 0 0 0 0 0 0 0 0 0 0 0 0 0 0 0 0 0 0 0 0 0 0 0 0 0 0 0 0
0 0 0 0 0 0 1 1 1 1 1 2 1 0 0 0 0 0 0 0 0 0 0 0 0 0 0 0 0 0 0 0 0 0 0 0 0 0 0 0 0 0 0
1 1 1 1 1 1 1 0 0 0 1 1 1 0 0 0 0 0 0 0 0 0 0 0 0 0 0 0 0 0 0 0 0 0 0 0 0 0 0 0 0 0 0
2 2 2 2 2 2 2 1 0 0 0 0 0 0 0 0 0 0 0 0 0 0 0 0 0 0 0 0 0 0 0 0 0 0 0 0 0 0 0 0 0 0 0
2 2 2 2 2 2 2 1 0 0 0 0 0 0 0 0 0 0 0 0 0 0 0 0 0 0 0 0 0 0 0 0 0 0 0 0 0 0 0 0 0 0 0
1 1 1 1 1 1 1 1 0 0 0 0 0 0 0 0 0 0 0 0 0 0 0 0 0 0 0 0 0 0 0 0 0 0 0 0 0 0 0 0 0 0 0
2 1 0 0 0 0 0 0 0 0 0 0 0 0 0 0 0 0 0 0 0 0 0 0 0 0 0 0 0 0 0 0 0 0 0 0 0 0 0 0 0 0 0
2 1 0 0 0 0 0 0 0 0 0 0 0 0 0 0 0 0 0 0 0 0 0 0 0 0 0 0 0 0 0 0 0 0 0 0 0 0 0 0 0 0 0
1 0 0 0 0 0 0 0 0 0 0 0 0 0 0 0 0 0 0 0 0 0 0 0 0 0 0 0 0 0 0 0 0 0 0 0 0 0 0 0 0 0 0
0 0 0 0 0 0 0 0 0 0 0 0 0 0 0 0 0 0 0 0 0 0 0 0 0 0 0 0 0 0 0 0 0 0 0 0 0 0 0 0 0 0 0
0 0 0 0 0 0 0 0 0 0 0 0 0 0 0 0 0 0 0 0 0 0 0 0 0 0 0 0 0 0 0 0 0 0 0 0 0 0 0 0 0 0 0
0 0 0 0 0 0 0 0 0 0 1 1 1 2 1 0 0 0 0 0 0 0 0 0 0 0 0 0 0 0 0 0 0 0 0 0 0 0 0 0 0 0 0
0 0 0 0 0 0 0 0 0 1 2 2 3 3 2 1 1 0 0 0 0 0 0 0 0 0 0 0 0 0 0 0 0 0 0 0 0 0 0 0 0 0 0
0 0 0 0 0 0 0 0 0 1 2 3 3 3 3 2 1 0 0 0 0 0 0 0 0 0 0 0 0 0 0 0 0 0 0 0 0 0 0 0 0 0 0
0 0 0 0 0 0 0 0 0 1 2 3 3 3 3 3 1 0 0 0 0 0 0 0 0 0 0 0 0 0 0 0 0 0 0 0 0 0 0 0 0 0 0

GEFSGL_con_prob3kmehi_180.txt.gz
EHI
27 28 28 27 26 26 24 19 15 14 14 14 15 15 15 16 19 20 16 13 11 8 6 5 5 6 6 5 2 1 1 0 0 0 0 0 0 0 0 0 0 0 0
27 27 27 27 28 29 26 22 18 15 14 14 14 13 13 15 20 20 17 13 12 10 8 7 6 7 7 6 4 2 1 0 0 0 0 0 0 0 0 0 0 0 0
30 29 28 28 29 29 28 26 23 18 16 15 16 15 13 15 18 19 17 14 13 13 11 9 8 7 8 7 5 3 1 0 0 0 1 1 1 1 1 0 0 0 0
29 29 29 29 28 27 27 26 24 20 18 19 20 19 16 14 14 15 15 15 15 14 13 11 9 8 7 6 5 4 2 1 0 1 1 2 2 3 2 1 1 1 1
27 28 29 28 27 26 26 25 23 20 19 20 20 19 16 13 10 9 10 11 13 14 13 11 9 7 5 4 4 3 2 1 1 2 2 2 2 3 3 2 1 1 1
28 28 28 28 27 27 26 25 23 21 20 18 16 14 12 10 6 4 5 7 10 12 12 10 8 6 4 2 1 1 1 0 1 2 2 3 3 3 3 3 2 1 1
28 26 25 24 25 26 25 23 23 22 21 18 14 10 8 6 3 1 2 5 8 11 11 9 7 5 3 2 1 1 1 0 1 1 2 2 2 2 2 2 1 0 0
23 21 20 20 21 23 23 22 23 23 23 20 15 10 8 4 1 0 1 3 7 9 9 9 7 5 4 3 3 3 2 1 0 0 0 1 1 1 1 1 0 0 0
16 16 17 17 18 19 21 22 24 25 24 21 16 12 9 5 1 0 1 3 5 7 8 8 6 5 3 2 3 5 4 2 1 0 0 0 0 0 0 0 0 0 0
13 14 16 16 16 17 20 23 26 27 25 21 16 12 10 6 2 0 1 4 6 7 8 7 5 3 2 1 3 6 5 2 1 0 0 0 0 0 0 0 0 0 0
14 15 17 17 16 17 22 26 29 29 26 20 16 12 9 6 3 0 1 3 5 7 8 8 5 2 1 0 2 4 3 1 0 0 0 0 0 0 0 0 0 0 0
18 19 20 20 18 19 25 30 32 31 26 19 14 11 8 5 2 0 0 1 3 5 6 6 4 1 0 0 0 1 1 0 0 0 0 0 0 0 0 0 0 0 0
22 22 23 22 21 22 26 28 28 27 23 18 13 10 9 7 4 2 1 1 1 2 3 2 1 0 0 0 0 0 0 0 0 0 0 0 0 0 0 0 0 0 0
23 22 22 23 22 23 23 21 19 18 17 16 13 10 10 8 5 3 2 1 0 0 1 1 1 1 1 0 0 0 0 0 0 0 0 0 0 0 0 0 0 0 0
23 23 23 23 23 22 19 14 11 9 9 10 9 8 8 6 3 1 1 1 0 0 0 1 1 2 1 0 0 0 0 0 0 0 0 0 0 0 0 0 0 0 0
25 25 23 22 21 18 13 9 5 3 3 3 3 4 4 2 0 0 0 0 0 0 0 1 1 1 1 0 0 0 0 0 0 0 0 0 0 0 0 0 0 0 0
22 21 19 17 15 12 8 5 2 1 0 0 0 0 1 0 0 0 0 0 0 0 0 1 1 0 0 0 0 0 0 0 0 0 0 0 0 0 0 0 0 0 0
16 14 12 10 9 8 6 4 3 1 1 1 0 0 0 0 0 0 0 0 0 0 0 0 0 0 0 0 0 0 0 0 0 0 0 0 0 0 0 0 0 0 0
10 9 8 6 6 5 4 3 3 3 2 1 0 0 0 0 0 0 0 0 0 0 0 0 0 0 0 0 1 1 1 1 1 0 0 0 0 0 0 0 0 0 0
6 5 5 5 4 3 3 4 4 4 3 1 0 0 0 0 0 0 0 0 0 0 0 0 0 0 1 1 2 2 2 2 1 0 0 0 0 0 0 0 0 0 0
3 3 3 4 4 4 4 5 6 5 3 1 0 0 0 0 0 0 0 0 0 0 0 0 1 1 2 2 2 2 2 2 1 0 0 0 0 0 0 0 0 0 0
3 3 3 5 5 5 4 5 6 5 2 1 0 0 0 0 0 0 0 0 0 0 1 1 2 3 3 3 1 1 1 1 0 0 0 0 0 0 0 0 0 0 0
3 3 4 5 5 3 3 3 4 2 1 0 0 0 0 0 0 0 0 0 0 1 2 3 3 3 3 2 1 0 0 0 0 0 0 0 0 0 0 0 0 0 0
2 3 3 3 2 1 1 1 1 0 0 0 0 0 0 0 0 0 0 1 1 2 3 3 3 2 2 1 0 0 0 0 0 0 0 0 0 0 0 0 0 0 0
2 2 1 1 0 0 0 0 0 0 0 0 0 0 0 0 0 1 1 1 2 2 2 2 1 1 1 0 0 0 0 0 0 0 0 0 0 0 0 0 0 0 0
1 1 0 0 0 0 0 0 0 0 0 0 0 0 0 0 1 2 2 1 1 1 1 1 0 0 0 0 0 0 0 0 0 0 0 0 0 0 0 0 0 0 0

GEFSGL_con_prob3kmehi_186.txt.gz
EHI
72 69 66 60 57 58 57 54 51 47 44 44 43 41 38 37 39 38 33 29 26 23 22 21 19 15 11 8 9 11 10 9 5 1 1 6 11 10 7 4 1 0 0
65 65 64 59 56 56 55 55 53 48 46 45 44 41 37 35 37 37 33 28 24 22 22 22 20 17 13 10 10 10 10 9 7 3 1 6 10 10 8 5 2 0 0
55 57 57 56 54 52 51 51 51 48 46 45 43 39 35 35 36 35 33 28 25 23 23 24 22 20 17 13 12 11 10 9 8 5 2 4 8 8 7 4 1 0 0
51 50 51 51 50 48 46 44 44 45 44 43 41 37 35 35 35 35 34 30 26 24 23 23 22 20 18 15 13 12 10 9 8 6 3 3 4 5 4 2 0 0 0
51 49 48 47 46 44 43 41 41 41 42 42 39 36 34 33 32 31 31 29 27 24 23 22 20 17 14 12 11 10 9 8 7 5 3 2 1 2 3 2 0 0 0
50 48 47 46 44 41 39 39 38 38 39 39 37 34 31 28 23 19 20 24 25 24 23 21 18 12 8 6 6 5 5 6 5 5 4 2 1 3 4 3 1 0 0
47 46 45 45 43 38 35 35 35 34 34 34 33 33 30 24 16 8 8 15 20 22 22 20 16 11 7 5 4 3 3 3 3 4 4 3 1 3 5 4 2 0 0
43 43 42 41 39 35 33 33 31 30 30 31 31 32 29 22 13 5 2 8 16 19 19 17 14 11 8 7 6 5 4 3 2 2 3 3 1 2 3 2 1 0 0
40 40 38 36 34 32 33 33 31 30 31 31 31 32 29 21 12 4 2 6 14 18 17 14 12 10 8 5 6 7 6 5 3 1 1 1 0 0 1 0 0 0 0
40 39 36 33 32 32 33 33 33 34 34 32 32 30 27 20 12 4 3 7 12 15 14 11 8 7 5 3 4 6 6 6 5 3 1 1 0 0 0 0 0 0 0
40 38 35 31 30 31 34 35 36 36 34 32 31 28 23 17 11 4 3 5 7 8 10 9 6 3 1 1 2 4 4 4 4 4 2 1 0 0 0 0 0 0 0
38 36 33 29 26 28 35 38 37 35 32 30 30 27 21 15 9 4 1 2 2 3 5 5 3 1 0 0 1 1 1 1 1 1 1 1 0 0 1 0 0 0 0
35 33 31 28 25 27 32 35 33 31 28 27 27 24 20 16 10 4 0 0 0 0 1 1 1 0 0 0 0 0 0 0 0 0 0 0 0 0 0 0 0 0 0
33 33 32 29 26 25 26 24 23 22 22 22 21 18 16 14 11 5 1 0 0 0 0 0 1 1 1 1 1 1 1 1 0 0 0 0 0 0 0 0 0 0 0
33 33 33 30 25 21 18 15 13 12 12 13 12 11 10 9 8 5 1 0 0 0 0 1 1 2 2 2 2 2 2 1 0 0 0 0 0 0 0 0 0 0 0
32 31 30 26 22 18 14 11 8 5 4 4 5 5 4 3 2 2 1 0 0 0 0 1 1 1 1 1 1 1 1 1 0 0 0 0 1 1 0 0 0 0 0
27 27 25 21 18 16 14 11 8 4 2 1 1 1 1 0 0 0 0 0 0 0 0 0 0 0 0 0 0 0 0 0 0 0 0 1 2 2 2 2 1 0 0
19 19 18 14 13 14 14 13 10 7 4 2 1 0 0 0 0 0 0 0 0 0 0 0 0 0 0 0 0 0 0 0 0 0 0 1 3 3 3 3 2 1 0
11 10 9 8 8 10 11 11 10 7 6 4 1 0 0 0 0 0 0 0 0 0 0 0 0 0 0 0 0 0 0 0 1 1 1 2 3 3 3 3 2 1 1
4 4 4 4 5 6 6 6 6 6 6 4 1 0 0 0 0 0 0 0 0 0 0 0 0 0 0 0 0 0 0 1 2 2 3 3 3 2 2 1 1 1 0
4 4 4 3 2 2 2 2 3 5 6 4 1 0 0 0 0 0 0 0 0 0 0 0 0 0 0 0 1 1 1 1 3 3 3 2 1 1 1 0 0 0 0
6 5 4 3 1 0 0 2 3 5 5 3 1 0 0 0 0 0 0 0 0 0 0 0 0 0 0 0 1 2 2 2 2 2 1 1 0 0 0 0 0 0 0
5 4 3 2 1 0 1 2 4 4 3 1 0 0 0 0 0 0 0 0 0 0 0 0 0 0 0 0 1 1 1 1 1 1 0 0 0 0 0 0 0 0 0
3 2 1 1 0 1 2 3 3 2 1 0 0 0 0 0 0 0 0 0 0 0 0 0 0 0 0 0 1 0 0 0 0 0 0 0 0 0 0 0 0 0 0
2 1 0 0 1 2 3 3 2 1 0 0 0 0 0 0 0 0 0 0 0 0 0 0 0 0 0 0 0 0 0 0 0 0 0 0 0 0 0 0 0 0 0
1 1 0 0 1 2 3 2 1 0 0 0 0 0 0 0 0 0 0 0 0 0 0 0 0 0 0 0 0 0 0 0 0 0 0 0 0 0 0 0 0 0 0

GEFSGL_con_prob3kmehi_192.txt.gz
EHI
34 32 29 27 23 17 14 13 12 11 10 9 8 6 6 9 12 11 8 5 4 2 2 2 1 0 0 0 0 0 0 0 0 0 0 0 0 0 0 0 0 0 0
37 33 28 25 22 18 15 12 11 8 6 7 6 6 7 9 11 12 10 7 4 2 1 1 0 0 0 0 0 0 0 0 0 0 0 0 0 0 0 0 0 0 0
39 33 27 24 22 21 18 15 12 8 5 4 4 6 8 10 11 12 11 7 3 2 2 1 0 0 0 1 1 0 0 0 0 0 0 0 0 0 0 0 0 0 0
36 33 28 25 25 24 20 17 14 10 8 6 4 5 8 10 12 12 10 6 4 3 3 2 0 0 1 2 2 2 1 1 0 0 0 0 0 0 0 0 0 0 0
32 31 29 28 27 24 20 16 13 10 10 9 6 6 8 11 12 11 9 7 5 4 3 2 0 0 1 2 3 3 3 2 1 0 0 0 0 0 0 0 0 0 0
27 28 29 28 25 21 16 14 11 10 9 9 8 8 9 11 11 8 7 8 6 5 4 3 2 1 0 1 1 2 2 2 1 0 0 0 0 0 0 0 0 0 0
25 26 27 26 22 18 15 14 13 13 12 11 11 11 12 11 8 4 3 5 6 6 6 5 4 1 0 0 0 0 1 1 1 1 0 0 0 0 0 0 0 0 0
27 25 25 24 21 17 15 15 16 16 17 17 16 14 13 11 6 1 0 2 3 4 5 5 4 2 1 0 0 0 0 0 0 0 0 0 0 0 0 0 0 0 0
27 24 22 21 20 18 16 17 17 18 19 18 17 15 13 10 5 1 0 0 1 1 2 2 3 2 1 0 0 0 0 0 0 0 0 0 0 0 0 0 0 0 0
24 22 19 19 18 17 16 16 16 16 16 15 14 13 11 9 5 1 0 0 0 0 0 0 1 1 0 0 0 0 0 0 0 0 0 0 0 0 0 0 0 0 0
20 17 16 15 15 14 14 13 13 12 12 12 11 10 10 8 4 1 0 0 1 1 1 1 0 0 0 0 0 0 0 0 0 0 0 0 0 0 0 0 0 0 0
16 14 11 11 11 12 12 12 11 10 10 9 9 8 8 6 4 1 0 0 1 2 2 2 1 0 0 0 0 0 0 0 0 0 0 0 0 0 0 0 0 0 0
12 11 8 7 7 9 10 11 10 10 9 7 7 7 7 6 5 2 0 0 0 1 2 2 1 0 0 0 0 0 0 0 0 0 0 0 0 0 0 0 0 0 0
10 8 6 4 3 5 6 7 8 8 7 7 6 6 6 6 6 3 1 0 0 0 1 1 0 0 0 0 0 0 0 0 0 0 0 0 0 0 0 0 0 0 0
8 6 3 1 1 2 4 4 5 5 5 5 5 6 6 6 5 4 2 0 0 0 0 0 0 0 0 0 0 0 0 0 0 0 0 0 0 0 0 0 0 0 0
6 4 2 0 0 1 2 2 2 3 3 2 3 3 3 3 3 2 1 0 0 0 0 0 0 0 0 0 0 0 0 0 0 0 0 0 0 0 0 0 0 0 0
3 2 1 0 0 1 1 1 1 1 1 1 1 1 1 1 1 0 0 0 0 0 0 0 0 0 0 0 0 0 0 0 0 0 0 0 0 0 0 0 0 0 0
1 1 1 0 0 0 0 0 1 2 2 1 0 0 0 0 0 0 0 0 0 0 0 0 0 0 0 0 0 0 0 0 0 0 0 0 0 0 0 0 0 0 0
1 0 0 0 0 0 0 0 1 3 3 2 1 0 0 0 0 0 0 0 0 0 0 0 0 0 0 0 0 0 0 0 0 0 0 0 0 0 0 0 0 0 0
1 0 0 0 0 0 0 0 1 2 2 2 1 0 0 0 0 0 0 0 0 0 0 0 0 0 0 0 0 0 0 0 0 0 0 0 0 0 0 0 0 0 0
0 0 0 0 0 0 0 0 1 1 1 1 1 0 0 0 0 0 0 0 0 0 0 0 0 0 0 0 0 0 0 0 0 0 0 0 0 0 0 0 0 0 0
0 0 0 0 0 0 0 0 0 0 0 0 0 0 0 0 0 0 0 0 0 0 0 0 0 0 0 0 0 0 0 0 0 0 0 0 0 0 0 0 0 0 0
0 0 0 0 0 0 0 0 0 0 0 0 0 0 0 0 0 0 0 0 0 0 0 0 0 0 0 0 0 0 0 0 0 0 0 0 0 0 0 0 0 0 0
0 0 0 0 0 0 0 0 0 0 0 0 0 0 0 0 0 0 0 0 0 0 0 0 0 0 0 0 0 0 0 0 0 0 0 0 0 0 0 0 0 0 0
0 0 0 0 0 0 0 0 0 0 0 0 0 0 0 0 0 0 0 0 0 0 0 0 0 0 0 0 0 0 0 0 0 0 0 0 0 0 0 0 0 0 0
0 0 0 0 0 0 0 0 0 0 0 0 0 0 0 0 0 0 0 0 0 0 0 0 0 0 0 0 0 0 0 0 0 0 0 0 0 0 0 0 0 0 0